Printer-friendly version

IAU Minor Planet Center

Minor Planet Center

MPEC 2007-E65 : 2007 EN26

The following Minor Planet Electronic Circular may be linked-to from your own Web pages, but must not otherwise be redistributed electronically.


Read MPEC 2007-E64 Read MPEC 2007-E66


M.P.E.C. 2007-E65                                Issued 2007 Mar. 13, 01:59 UT

     The Minor Planet Electronic Circulars contain information on unusual
         minor planets and routine data on comets.  They are published
   on behalf of Commission 20 of the International Astronomical Union by the
          Minor Planet Center, Smithsonian Astrophysical Observatory,
                          Cambridge, MA 02138, U.S.A.

             Prepared using the Tamkin Foundation Computer Network

                              MPC@CFA.HARVARD.EDU
          URL http://cfa-www.harvard.edu/iau/mpc.html  ISSN 1523-6714

                                   2007 EN26

Observations:
     K07E26N* C2007 03 12.41034 14 12 23.14 +21 23 16.2          19.6 V EE065703
     K07E26N  C2007 03 12.41624 14 12 23.94 +21 23 04.7          20.5 V EE065703
     K07E26N  C2007 03 12.42218 14 12 24.76 +21 22 52.5          20.1 V EE065703
     K07E26N  C2007 03 12.42809 14 12 25.41 +21 22 38.6          20.2 V EE065703
     K07E26N  C2007 03 12.45221 14 12 28.52 +21 21 48.6                 EE065703
     K07E26N  C2007 03 12.45764 14 12 29.33 +21 21 35.7          19.1 V EE065703
     K07E26N  C2007 03 12.46335 14 12 29.97 +21 21 23.4          19.8 V EE065703
     K07E26N  C2007 03 12.46877 14 12 30.71 +21 21 12.2          19.4 V EE065703
     K07E26N  C2007 03 12.89915 14 13 41.57 +21 05 01.5          18.9 R EE065473
     K07E26N  C2007 03 12.90306 14 13 42.11 +21 04 52.4          18.8 R EE065473
     K07E26N  C2007 03 12.90697 14 13 42.72 +21 04 43.8          19.1 R EE065473
     K07E26N  C2007 03 12.96067 14 13 50.41 +21 02 44.5                 EE065246
     K07E26N  C2007 03 12.96137 14 13 50.52 +21 02 42.7                 EE065246
     K07E26N  C2007 03 12.96242 14 13 50.68 +21 02 39.9                 EE065246
     K07E26N  C2007 03 12.96340 14 13 50.84 +21 02 38.3                 EE065246
     K07E26N  C2007 03 12.96457 14 13 51.00 +21 02 35.5                 EE065246
     K07E26N  C2007 03 12.96682 14 13 51.30 +21 02 31.1                 EE065246

Observer details:
246 Klet Observatory-KLENOT.  Observer M. Tichy.  1.06-m KLENOT Telescope
    + CCD.
473 Remanzacco.  Observers L. Donato, V. Gonano, E. Guido, A. Lepardo,
    V. Santini, G. Sostero.  0.45-m f/4.4 Newtonian reflector + CCD.
703 Catalina Sky Survey.  Observer A. P. Odell.  Measurers E. C. Beshore,
    E. J. Christensen, G. J. Garradd, A. R. Gibbs, A. D. Grauer, R. E. Hill,
    R. A. Kowalski, S. M. Larson, R. H. McNaught.  0.68-m Schmidt + CCD.

Orbital elements:
2007 EN26                                                Earth MOID = 0.0130 AU
Epoch 2007 Apr. 10.0 TT = JDT 2454200.5                 MPC
M 331.28122              (2000.0)            P               Q
n   0.68727738     Peri.  250.43799     -0.19963972     +0.97906836
a   1.2716903      Node     8.34940     -0.76527971     -0.13054428
e   0.3326700      Incl.   15.83061     -0.61195665     -0.15615166
P   1.43           H   22.2           G   0.15           U   9
Residuals in seconds of arc
070312 703  0.5-  0.8-    070312 703  0.4-  0.2-    070312 246  0.1-  0.0
070312 703  0.1+  0.2+    070312 703  0.1+  0.3+    070312 246  0.0   0.5-
070312 703  0.9+  0.6+    070312 473  0.3+  0.3+    070312 246  0.3+  0.1+
070312 703  0.6-  0.7-    070312 473  0.4-  0.3-    070312 246  0.2+  0.1-
070312 703  0.6-  0.9+    070312 473  0.0   0.4-    070312 246  0.2-  0.5+
070312 703  1.0+  0.3-    070312 246  0.2-  0.3+

Ephemeris:
2007 EN26                a,e,i = 1.27, 0.33, 16                  q = 0.8486
Date    TT    R. A. (2000) Decl.     Delta      r     Elong.  Phase     V
2007 03 11    14 08.95   +22 09.3    0.149    1.105   135.9    38.7    19.8
2007 03 13    14 13.91   +21 01.8    0.134    1.095   136.4    38.7    19.6
2007 03 15    14 19.63   +19 34.5    0.119    1.084   136.9    38.8    19.3
2007 03 17    14 26.44   +17 39.0    0.104    1.073   137.3    39.0    19.0
2007 03 19    14 34.85   +15 01.9    0.0892   1.063   137.4    39.3    18.6
2007 03 21    14 45.72   +11 21.0    0.0750   1.052   137.2    40.0    18.3
2007 03 23    15 00.53   +05 56.9    0.0616   1.042   136.2    41.5    17.9
2007 03 25    15 22.11   -02 19.2    0.0495   1.032   133.0    44.9    17.5
2007 03 27    15 56.21   -15 10.6    0.0397   1.021   125.6    52.6    17.2
2007 03 29    16 54.90   -33 12.4    0.0343   1.011   111.2    66.9    17.3
2007 03 31    18 36.81   -50 22.1    0.0353   1.001    92.9    85.1    17.9
2007 04 02    20 48.61   -57 24.3    0.0421   0.991    77.8    99.8    18.9
2007 04 04    22 27.92   -56 17.7    0.0526   0.982    68.3   108.9    19.9
2007 04 06    23 24.72   -53 07.0    0.0650   0.972    62.5   114.1    20.6
2007 04 08    23 57.68   -50 05.6    0.0784   0.963    58.9   117.1    21.2
2007 04 10    00 18.46   -47 34.6    0.0924   0.954    56.5   118.8    21.7

Timothy B. Spahr             (C) Copyright 2007 MPC           M.P.E.C. 2007-E65

Read MPEC 2007-E64 Read MPEC 2007-E66


Our Web policy. Index to the CBAT/MPC/ICQ pages.


Valid HTML 4.01!